Погода Ванжиль-Кынак

Погода Ванжиль-Кынак : погода сейчас, прогноз погоды и архив. Всё, что Вы хотите узнать о погоде Ванжиль-Кынак!

Хотите узнать прогноз погоды Ванжиль-Кынак? Тогда Вам сюда: Погода Ванжиль-Кынак

Поиск расширенной информации на нашем сайте:

Другие новости

Новости СМИ2

Главная страница сайта

Новости сайта

03.07.2017

Напоминаем, что на нашем специализированном сайте Метеоцентр.Азия вы можете получить высокодетализированные автоматические прогнозы погоды по пунктам России, СНГ и мира в авиационном формате (включающие направление и скорость ветра, видимость, явления погоды, количество и форму облачности, нижнюю и верхнюю границу облачности).


Погода Ванжиль-Кынак - сегодня

Время (UTC), дата Ветер
(°,м/с) 
Видим.   Явления Облачность Т
(°С)
Тd
(°С)
f(%) Тe
(°С)
Pmin
(гПа)
dP
(гПа)
Po
(мм)
O2
(г/м3)
Тmin Tmax R s Состояние
почвы
03 20.08.17 тихо ()   10 км    9/9 600 м 
[Sc]
+11.9 +9.7 86 +13  1016.9  754  289           
06 20.08.17 280 (З) 10 км    8/4 300 м кучево-дожд., средняя, верхняя 
[Cb cap|Ac trans|Ci fib]
+16.1 +10.5 69 +19  1016.2  -0.5  753  285           
09 20.08.17 тихо ()   10 км  {ливн. осадки}  8/6 300 м кучево-дожд., средняя, верхняя 
[Cb cap|Ac trans|Ci sp]
+15.9 +13.2 84 +22  1015.7  -0.5  753  284           
12 20.08.17 тихо ()   10 км  в посл. час ливневой дождь  8/6 300 м кучево-дожд., средняя 
[Cb cap|Ac trans]
+14.2 +12.2 88 +18  1016.1  0.3  753  286    +18.1     
15 20.08.17 330 (СЗ) 4000 м  дымка{ливн. осадки}  10/10 300 м кучево-дожд. 
[Cb cap]
+12.4 +11.6 95 +16  1017.4  1.2  754  288           
18 20.08.17 тихо ()   4000 м  дымка{ливн. осадки}  8/8 300 м кучево-дожд. 
[Cb cap]
+10.2 +9.4 95 +10  1018.3  0.8  755  291           
00 21.08.17 тихо ()   10 км    9/3 300 м кучево-дожд., верхняя 
[Cb cap|Ci sp]
+5.3 +4.8 97 +5  1020.5  1.3  756  298  +5      влажная 
03 21.08.17 тихо ()   10 км    4/0 верхняя 
[Ci fib]
+10 +7 82 +10  1021.3  0.9  757  293           
06 21.08.17 020 (С) 10 км    3/1 600 м верхняя 
[Cu hum|Ci fib]
+14.7 +4.4 50 +16  1020.9  -0.2  757  289           
09 21.08.17 280 (З) 10 км    8/0 верхняя 
[Ci fib]
+16.1 +5.8 50 +17  1020.1  -0.7  756  287           
12 21.08.17 тихо ()   10 км    8/0 верхняя 
[Ci fib]
+14.3 +6.7 60 +14  1019.3  -0.8  756  288    +16.4       
15 21.08.17 тихо ()   20000 м    6/0 верхняя 
[Ci fib]
+9.6 +7.7 88 +10  1018.6  -0.9  755  293           
18 21.08.17 050 (СВ) 4000 м  дымка  10/10 600 м 
[Sc]
+10 +8.4 90 +11  1017.4  -1.2  754  292           
21 21.08.17 060 (СВ) 4000 м  слаб. ливневой дождь  10/10 300 м кучево-дожд. 
[Cb cap]
+11.6 +10.8 95 +15  1015.3  -2  752  289           
00 22.08.17 тихо ()   4000 м  слаб. ливневой дождь  10/10 300 м кучево-дожд. 
[Cb cap]
+12.3 +11.7 96 +16  1013.7  -1.5  751  287  +8.5      влажная 
03 22.08.17 170 (Ю) 10 км  {ливн. осадки}  10/10 300 м кучево-дожд. 
[Cb cap]
+14.6 +14.1 97 +23  1011.6  -2  750  284           
06 22.08.17 260 (З) 4000 м  слаб. ливневой дождь  ?/? 300 м кучево-дожд. 
[Cb cap]
+15.2 +14.9 98 +24  1011.7  -0.4  750  283           
09 22.08.17 280 (З) 10 км  {ливн. осадки}  8/8 300 м кучево-дожд., средняя, верхняя 
[Cb cap|Ac trans|Ci fib]
+17.6 +15.7 89 +29  1011.6  0.5  750  280           
12 22.08.17 310 (СЗ) 10 км  {ливн. осадки}  3/3 600 м 
[Sc diur, vesp]
+17.2 +12.5 74 +24  1012.7  1.1  751  282    +18.6  10     
15 22.08.17 тихо ()   4000 м  дымка{ливн. осадки}  ясно 
+12.4 +11.6 95 +16  1014.6  1.7  752  288           
18 22.08.17 тихо ()   4000 м  дымка{ливн. осадки}  ясно 
+10 +9.6 97 +11  1016.2  1.4  753  291           
00 23.08.17 тихо ()   4000 м  дымка  8/8 600 м 
[Sc]
+6.5 +6.3 99 +7  1019.7  1.8  756  296  +6.4      мокрая 
03 23.08.17 тихо ()   10 км    8/4 300 м кучево-дожд., средняя, верхняя 
[Cb cap|Ac trans|Ci sp]
+12.4 +10.5 88 +14  1020.5  756  290           
06 23.08.17 260 (З) 10 км    10/10 300 м кучево-дожд. 
[Cb cap]
+16.2 +11.8 75 +21  1020  -0.3  756  285           
09 23.08.17 260 (З) 10 км  {ливн. осадки}  10/10 300 м кучево-дожд. 
[Cb cap]
+18.4 +11.7 65 +22  1019.4  -0.4  756  283           
Время (UTC), дата Ветер
(°,м/с) 
Видим.   Явления Облачность Т
(°С)
Тd
(°С)
f(%) Тe
(°С)
Pmin
(гПа)
dP
(гПа)
Po
(мм)
O2
(г/м3)
Тmin Tmax R s Состояние
почвы

Для получения пояснительной информации подведите курсор к названию столбца.

ПОГОДА Ванжиль-Кынак - архив

Всё, что Вы хотите узнать о погоде Ванжиль-Кынак - удобно и подробно!

Выберите нужную дату (начиная с 1 января 2015* года) и нажмите кнопку "Найти".
Будут отображены архивные сводки погоды по пункту Ванжиль-Кынак, начиная с указанной даты.


Отображать данные в формате CSV (для использования в таблицах Excel)


Внимание! Наш архив погоды предназначен исключительно для личного некоммерческого использования в познавательных целях. Если Вам необходимы официальные справки о состоянии погоды (для производственных, юридических, коммерческих и т.п. целей), обращайтесь в органы Росгидромета.

*Примечание: данная дата относится к архиву по метеостанциям СССР (Россия, СНГ, Балтия).
Архив по метеостанциям Зарубежной Европы и Азии (кроме Китая) хранится 10 дней, по другим регионам земного шара (Китай, Африка, Америка, Австралия, Океания) - 1 день.

Ванжиль-Кынак - район местоположения метеостанции


Название, широта, долгота, высота метеостанции:
Ванжиль-Кынак 60.3°ш. 84.1°д. 99 м над ур. моря [Российская Федерация]

Дополнительная информация

В oтличие oт бoльшинства пoгoдных сайтoв мы публикуем пoдрoбную метеoинфoрмацию в детальнoм прoфессиoнальнoм фoрмате.

Характеристики температуры и влажнoсти вoздуха измеряются на высoте 2 м в тени вдали oт зданий и деревьев.
Скoрoсть ветра измеряется на высoте 10 м (на урoвне рoста челoвека скoрoсть ветра ниже в 1.5-2 раза). Если метеoстанция нахoдится в гoрoде или в лесу, тo скoрoсть ветра занижена на 2-4 м/с пo сравнению с oткрытым местoм. Скoрoсть ветра над акватoриями крупных рек и oзёр, а также на вершинах хoлмoв на 2-5 м/с выше, чем в oбычных услoвиях.
Атмoсфернoе давление в разных тoчках местнoсти мoжет значительнo oтличаться oт давления на метеoстанции, в зависимoсти oт услoвий рельефа (при пoдъёме на 10 м давление пoнижается примернo на 1 мм рт.ст.).